Weather History for Independence, KS

Change the Weather History Date:

Saturday, November 3, 2012

  Actual Average (KCFV) Record (KCFV)
Temperature  
Mean Temperature 52 °F -  
Max Temperature 62 °F 60 °F 79 °F (2003)
Min Temperature 41 °F 40 °F 26 °F (2006)
Degree Days  
Heating Degree Days 14    
Growing Degree Days 2 (Base 50)    
Moisture  
Dew Point 35 °F    
Average Humidity 58    
Maximum Humidity 76    
Minimum Humidity 34    
Precipitation  
Precipitation 0.00 in - - ()
Sea Level Pressure  
Sea Level Pressure 30.11 in    
Wind  
Wind Speed 9 mph (North)    
Max Wind Speed 16 mph    
Max Gust Speed 22 mph    
Visibility 10 miles    
Events      
Averages and records for this station are not official NWS values.
T = Trace of Precipitation, MM = Missing Value Source: NWS Daily Summary

Daily Weather History Graph

Daily Weather History Graph

Search for Another Location

Airport:

Trip Planner

Search our weather history database for the weather conditions in past years. The results will help you decide how hot, cold, wet, or windy it might be!

Date:

Astronomy

Nov. 03, 2012 Rise Set
Actual Time 7:50 AM CDT 6:22 PM CDT
Civil Twilight 7:22 AM CDT 6:49 PM CDT
Nautical Twilight 6:52 AM CDT 7:20 PM CDT
Astronomical Twilight 6:21 AM CDT 7:51 PM CDT
Moon 10:06 PM CDT (11/3) 11:52 AM CDT (11/3)
Length of Visible Light 11h 26m
Length of Day
10h 32m
Waning Gibbous, 80% of the Moon is Illuminated
Nov 3
Waning Gibbous
Nov 6
Last Quarter
Nov 13
New
Nov 20
First Quarter
Nov 28
Full

Hourly Weather History & Observations

Time (CDT) Temp. Windchill Dew Point Humidity Pressure Visibility Wind Dir Wind Speed Gust Speed Precip Events Conditions
12:15 AM 55.4 °F - 46.4 °F 72% 29.89 in 10.0 mi NNW 9.2 mph - N/A   Clear
12:35 AM 55.4 °F - 44.6 °F 67% 29.90 in 10.0 mi NNW 12.7 mph - N/A   Clear
12:55 AM 53.6 °F - 42.8 °F 67% 29.91 in 10.0 mi NNW 11.5 mph - N/A   Clear
1:15 AM 53.6 °F - 41.0 °F 62% 29.92 in 10.0 mi North 9.2 mph - N/A   Clear
1:35 AM 53.6 °F - 39.2 °F 58% 29.93 in 10.0 mi North 12.7 mph 20.7 mph N/A   Clear
1:55 AM 51.8 °F - 37.4 °F 58% 29.94 in 10.0 mi NNW 9.2 mph - N/A   Clear
2:15 AM 51.8 °F - 37.4 °F 58% 29.95 in 10.0 mi NNW 10.4 mph - N/A   Clear
2:35 AM 50.0 °F - 37.4 °F 62% 29.96 in 10.0 mi NNW 9.2 mph - N/A   Clear
2:55 AM 50.0 °F - 35.6 °F 58% 29.97 in 10.0 mi NNW 10.4 mph - N/A   Clear
3:15 AM 50.0 °F - 35.6 °F 58% 29.98 in 10.0 mi NNW 10.4 mph - N/A   Clear
3:35 AM 50.0 °F - 35.6 °F 58% 29.99 in 10.0 mi NNW 10.4 mph - N/A   Clear
3:55 AM 48.2 °F - 35.6 °F 62% 30.00 in 10.0 mi NNW 11.5 mph - N/A   Clear
4:15 AM 46.4 °F 41.1 °F 35.6 °F 66% 30.00 in 10.0 mi NNW 11.5 mph 17.3 mph N/A   Clear
4:35 AM 46.4 °F 41.1 °F 35.6 °F 66% 30.02 in 10.0 mi NNW 11.5 mph - N/A   Clear
4:55 AM 46.4 °F 42.9 °F 35.6 °F 66% 30.03 in 10.0 mi NNW 6.9 mph - N/A   Clear
5:15 AM 44.6 °F 40.2 °F 35.6 °F 71% 30.04 in 10.0 mi NNW 8.1 mph - N/A   Clear
5:35 AM 42.8 °F 37.5 °F 35.6 °F 76% 30.05 in 10.0 mi NNW 9.2 mph - N/A   Clear
5:55 AM 42.8 °F 37.0 °F 33.8 °F 70% 30.06 in 10.0 mi NNW 10.4 mph - N/A   Clear
6:15 AM 42.8 °F 37.5 °F 33.8 °F 70% 30.07 in 10.0 mi NNW 9.2 mph - N/A   Clear
6:35 AM 42.8 °F 37.5 °F 33.8 °F 70% 30.08 in 10.0 mi NNW 9.2 mph - N/A   Clear
6:55 AM 41.0 °F 35.2 °F 33.8 °F 76% 30.09 in 10.0 mi NNW 9.2 mph - N/A   Clear
7:15 AM 41.0 °F 34.7 °F 33.8 °F 76% 30.09 in 10.0 mi NNW 10.4 mph - N/A   Clear
7:35 AM 41.0 °F 35.8 °F 33.8 °F 76% 30.10 in 10.0 mi NNW 8.1 mph - N/A   Clear
7:55 AM 41.0 °F 35.2 °F 33.8 °F 76% 30.11 in 10.0 mi NNW 9.2 mph - N/A   Clear
8:15 AM 41.0 °F 35.2 °F 33.8 °F 76% 30.12 in 10.0 mi NNW 9.2 mph - N/A   Clear
8:35 AM 42.8 °F 38.0 °F 33.8 °F 70% 30.14 in 10.0 mi NNW 8.1 mph - N/A   Clear
8:55 AM 42.8 °F 37.5 °F 33.8 °F 70% 30.15 in 10.0 mi NNW 9.2 mph - N/A   Clear
9:15 AM 42.8 °F 36.2 °F 33.8 °F 70% 30.15 in 10.0 mi North 12.7 mph 16.1 mph N/A   Clear
9:35 AM 44.6 °F 38.4 °F 33.8 °F 66% 30.16 in 10.0 mi NNW 12.7 mph 17.3 mph N/A   Clear
9:55 AM 44.6 °F 37.4 °F 33.8 °F 66% 30.16 in 10.0 mi NNW 16.1 mph - N/A   Clear
10:15 AM 46.4 °F 39.8 °F 33.8 °F 62% 30.16 in 10.0 mi North 16.1 mph 21.9 mph N/A   Clear
10:35 AM 48.2 °F - 33.8 °F 58% 30.17 in 10.0 mi North 12.7 mph 18.4 mph N/A   Clear
10:55 AM 50.0 °F - 33.8 °F 54% 30.17 in 10.0 mi North 13.8 mph 17.3 mph N/A   Clear
11:15 AM 50.0 °F - 33.8 °F 54% 30.17 in 10.0 mi North 10.4 mph - N/A   Clear
11:35 AM 51.8 °F - 33.8 °F 50% 30.17 in 10.0 mi NNE 12.7 mph - N/A   Clear
11:55 AM 53.6 °F - 33.8 °F 47% 30.17 in 10.0 mi North 10.4 mph - N/A   Clear
12:15 PM 53.6 °F - 33.8 °F 47% 30.17 in 10.0 mi North 11.5 mph 16.1 mph N/A   Clear
12:35 PM 53.6 °F - 33.8 °F 47% 30.17 in 10.0 mi NNW 9.2 mph - N/A   Clear
12:55 PM 55.4 °F - 33.8 °F 44% 30.16 in 10.0 mi North 12.7 mph - N/A   Clear
1:15 PM 57.2 °F - 33.8 °F 41% 30.15 in 10.0 mi North 12.7 mph - N/A   Clear
1:35 PM 57.2 °F - 33.8 °F 41% 30.15 in 10.0 mi North 11.5 mph 17.3 mph N/A   Clear
1:55 PM 59.0 °F - 33.8 °F 39% 30.15 in 10.0 mi North 15.0 mph - N/A   Clear
2:15 PM 59.0 °F - 33.8 °F 39% 30.14 in 10.0 mi NNW 11.5 mph 16.1 mph N/A   Clear
2:35 PM 59.0 °F - 33.8 °F 39% 30.14 in 10.0 mi North 10.4 mph - N/A   Clear
2:55 PM 60.8 °F - 33.8 °F 36% 30.13 in 10.0 mi North 9.2 mph - N/A   Clear
3:15 PM 60.8 °F - 33.8 °F 36% 30.13 in 10.0 mi NNW 10.4 mph - N/A   Clear
3:35 PM 60.8 °F - 33.8 °F 36% 30.13 in 10.0 mi North 9.2 mph - N/A   Clear
3:55 PM 62.6 °F - 33.8 °F 34% 30.13 in 10.0 mi North 11.5 mph - N/A   Clear
4:15 PM 60.8 °F - 33.8 °F 36% 30.13 in 10.0 mi North 9.2 mph - N/A   Clear
4:35 PM 60.8 °F - 35.6 °F 39% 30.13 in 10.0 mi North 6.9 mph - N/A   Clear
4:55 PM 60.8 °F - 33.8 °F 36% 30.13 in 10.0 mi NNE 10.4 mph - N/A   Clear
5:15 PM 60.8 °F - 33.8 °F 36% 30.13 in 10.0 mi NNE 11.5 mph - N/A   Clear
5:35 PM 59.0 °F - 33.8 °F 39% 30.14 in 10.0 mi NNE 8.1 mph - N/A   Clear
5:55 PM 55.4 °F - 35.6 °F 47% 30.14 in 10.0 mi NNE 6.9 mph - N/A   Clear
6:15 PM 55.4 °F - 35.6 °F 47% 30.15 in 10.0 mi NNE 5.8 mph - N/A   Clear
6:35 PM 53.6 °F - 35.6 °F 51% 30.15 in 10.0 mi NNE 3.5 mph - N/A   Clear
6:55 PM 53.6 °F - 35.6 °F 51% 30.15 in 5.0 mi NE 3.5 mph - N/A   Haze
7:15 PM 51.8 °F - 35.6 °F 54% 30.15 in 10.0 mi Calm Calm - N/A   Clear
7:35 PM 51.8 °F - 35.6 °F 54% 30.16 in 10.0 mi NNE 3.5 mph - N/A   Clear
7:55 PM 51.8 °F - 35.6 °F 54% 30.17 in 10.0 mi NNE 3.5 mph - N/A   Clear
8:15 PM 50.0 °F - 35.6 °F 58% 30.17 in 10.0 mi North 3.5 mph - N/A   Clear
8:35 PM 50.0 °F - 35.6 °F 58% 30.18 in 10.0 mi Calm Calm - N/A   Clear
8:55 PM 46.4 °F - 35.6 °F 66% 30.18 in 10.0 mi Calm Calm - N/A   Clear
9:15 PM 46.4 °F - 35.6 °F 66% 30.18 in 10.0 mi Calm Calm - N/A   Clear
9:35 PM 46.4 °F - 35.6 °F 66% 30.18 in 10.0 mi Calm Calm - N/A   Clear
9:55 PM 46.4 °F - 35.6 °F 66% 30.19 in 10.0 mi Calm Calm - N/A   Clear
10:15 PM 44.6 °F - 35.6 °F 71% 30.19 in 10.0 mi Calm Calm - N/A   Clear
10:35 PM 44.6 °F - 35.6 °F 71% 30.19 in 4.0 mi Calm Calm - N/A   Haze
10:55 PM 44.6 °F - 35.6 °F 71% 30.19 in 10.0 mi Calm Calm - N/A   Clear
11:15 PM 42.8 °F - 35.6 °F 76% 30.19 in 10.0 mi Calm Calm - N/A   Clear
11:35 PM 42.8 °F - 35.6 °F 76% 30.20 in 10.0 mi Calm Calm - N/A   Clear
11:55 PM 42.8 °F - 35.6 °F 76% 30.20 in 10.0 mi Calm Calm - N/A   Clear